Location: Lake Almanor
(40.2485°N, 121.1442°W)
Time: 22:18:49
(UTC-07:00)

OTV 5 (USA 277) - Visible Passes

Search period start: 21 October 2018 00:00
Search period end: 31 October 2018 00:00
Orbit: 387 x 394 km, 54.5° (Epoch: 08 September)

Date Brightness Start Highest point End Pass type
(mag) Time Alt. Az. Time Alt. Az. Time Alt. Az.
22 Oct ? 20:21:24 10° SW 20:22:12 17° SW 20:22:12 17° SW visible
23 Oct ? 19:25:23 10° SSW 19:28:15 32° SE 19:28:34 31° ESE visible
24 Oct ? 20:04:33 10° WSW 20:07:11 44° WNW 20:07:11 44° WNW visible
25 Oct ? 19:08:04 10° SW 19:11:13 68° SE 19:13:17 20° NE visible
25 Oct ? 20:45:20 10° WNW 20:45:41 12° WNW 20:45:41 12° WNW visible
26 Oct ? 19:47:59 10° W 19:50:47 27° NNW 19:51:39 24° N visible
27 Oct ? 18:51:06 10° WSW 18:54:15 57° NW 18:57:25 10° NE visible
27 Oct ? 20:29:33 10° NW 20:29:54 11° NW 20:29:54 11° NW visible
28 Oct ? 19:31:44 10° WNW 19:34:00 18° NNW 19:35:41 13° N visible
29 Oct ? 18:34:28 10° W 18:37:21 31° NW 18:40:15 10° NNE visible
30 Oct ? 19:15:49 10° NW 19:17:16 12° NNW 19:18:45 10° N visible
